Regional Weather Roundup
Issued by NWS

Home | Current Version | Previous Version | Text Only | Print | Product List | Glossary Off
Versions: 1 2 3 4 5 6 7 8 9 10 11 12 13 14 15 16 17 18 19 20 21 22 23 24 25 26 27 28 29 30 31 32 33 34 35 36 37 38 39 40 41 42 43 44 45 46 47 48 49 50

000
ASUS43 KBIS 041010
RWRND

NORTH DAKOTA REGIONAL WEATHER ROUNDUP
NATIONAL WEATHER SERVICE BISMARCK ND
500 AM CDT MON MAY 04 2015

NOTE: "FAIR" INDICATES FEW OR NO CLOUDS BELOW 12,000 FEET WITH NO
SIGNIFICANT WEATHER AND/OR OBSTRUCTIONS TO VISIBILITY.


NDZ001>003-009>011-017-041100-
NORTHWEST NORTH DAKOTA

CITY           SKY/WX    TMP DP  RH WIND       PRES   REMARKS
WILLISTON      CLEAR     34  23  64 CALM      30.12S
MINOT          CLEAR     36  26  67 SW7       30.13R
MINOT AFB      CLEAR     29  25  85 SW3       30.13R
$$

NDZ018>021-031>035-040>046-041100-
SOUTHWEST NORTH DAKOTA

CITY           SKY/WX    TMP DP  RH WIND       PRES   REMARKS
BISMARCK       MOCLDY    33  25  72 CALM      30.17R
DICKINSON      MOCLDY    38  26  62 E5        30.12R
GARRISON         N/A     35  27  72 N7        30.14R
HETTINGER ARPT CLOUDY    34  27  75 CALM      30.14R
$$

NDZ004>008-012>016-024-026-027-054-041100-
NORTHEAST NORTH DAKOTA

CITY           SKY/WX    TMP DP  RH WIND       PRES   REMARKS
GRAND FORKS    CLEAR     35  29  78 N3        30.13R
GRND FRKS AFB  CLEAR     33  28  80 N3        30.13R
DEVILS LAKE    CLEAR     36  27  69 N3        30.14R
$$

NDZ022-023-025-028>030-036>039-047>053-041100-
SOUTHEAST NORTH DAKOTA

CITY           SKY/WX    TMP DP  RH WIND       PRES   REMARKS
FARGO          CLEAR     38  25  59 N3        30.12R
JAMESTOWN      MOCLDY    34  26  72 NW6       30.13R
$$



USA.gov is the U.S. government's official web portal to all federal, state and local government web resources and services.